"read_dt","SO2 (ppb)","flags","PMT voltage (V)","lamp voltage (V)","lamp intensity (Hz)","internal temp (C)","react chamber temp (C)","sample flow (l/min)","pres (mmHg)","SO2 bkg (ppb)","SO2 coefficient"
2015-10-28 00:00:00,1903E-3,5C000400,-0724,0828,12195,027.4,045.4,0.257,747.4,01.17,0.508
2015-10-28 00:01:00,1710E-3,5C000400,-0724,0829,12268,027.3,045.4,0.257,747.5,01.17,0.508
2015-10-28 00:02:00,1892E-3,5C000400,-0724,0828,12380,027.4,045.4,0.257,747.2,01.17,0.508
2015-10-28 00:03:00,1908E-3,5C000400,-0724,0829,12204,027.4,045.4,0.257,747.2,01.17,0.508
2015-10-28 00:04:00,1870E-3,5C000400,-0724,0830,12271,027.3,045.4,0.257,747.2,01.17,0.508
2015-10-28 00:05:00,1841E-3,5C000400,-0724,0828,12172,027.3,045.4,0.257,747.0,01.17,0.508
2015-10-28 00:06:00,1886E-3,5C000400,-0724,0829,12136,027.3,045.4,0.257,747.0,01.17,0.508
2015-10-28 00:07:00,1914E-3,5C000400,-0724,0828,12212,027.3,045.4,0.257,746.9,01.17,0.508
2015-10-28 00:08:00,1966E-3,5C000400,-0724,0828,12304,027.3,045.4,0.257,746.5,01.17,0.508
2015-10-28 00:09:00,1769E-3,5C000400,-0724,0829,12266,027.3,045.4,0.257,746.7,01.17,0.508
2015-10-28 00:10:00,1943E-3,5C000400,-0724,0828,12238,027.4,045.4,0.257,747.0,01.17,0.508
2015-10-28 00:11:00,1801E-3,5C000400,-0724,0829,12207,027.4,045.4,0.258,746.8,01.17,0.508
2015-10-28 00:12:00,1989E-3,5C000400,-0724,0829,12232,027.4,045.4,0.257,746.7,01.17,0.508
2015-10-28 00:13:00,1919E-3,5C000400,-0724,0829,12222,027.4,045.4,0.257,746.9,01.17,0.508
2015-10-28 00:14:00,1857E-3,5C000400,-0724,0829,12143,027.4,045.4,0.257,746.7,01.17,0.508
2015-10-28 00:15:00,1849E-3,5C000400,-0724,0829,12270,027.4,045.4,0.257,746.7,01.17,0.508
2015-10-28 00:16:00,1816E-3,5C000400,-0724,0829,12242,027.4,045.4,0.257,746.5,01.17,0.508
2015-10-28 00:17:00,1756E-3,5C000400,-0724,0828,12170,027.4,045.4,0.257,746.2,01.17,0.508
2015-10-28 00:18:00,1892E-3,5C000400,-0724,0829,12295,027.4,045.4,0.257,746.4,01.17,0.508
2015-10-28 00:19:00,1920E-3,5C000400,-0724,0829,12264,027.4,045.4,0.257,746.6,01.17,0.508
2015-10-28 00:20:00,1860E-3,5C000400,-0724,0829,12157,027.4,045.4,0.257,746.3,01.17,0.508
2015-10-28 00:21:00,1765E-3,5C000400,-0724,0829,12236,027.4,045.4,0.257,746.4,01.17,0.508
2015-10-28 00:22:00,1847E-3,5C000400,-0724,0829,12189,027.3,045.4,0.257,746.5,01.17,0.508
2015-10-28 00:23:00,1889E-3,5C000400,-0724,0829,12238,027.3,045.4,0.257,746.4,01.17,0.508
2015-10-28 00:24:00,1818E-3,5C000400,-0724,0829,12198,027.4,045.4,0.257,746.5,01.17,0.508
2015-10-28 00:25:00,1957E-3,5C000400,-0724,0829,12225,027.4,045.4,0.257,746.7,01.17,0.508
2015-10-28 00:26:00,1928E-3,5C000400,-0724,0829,12269,027.4,045.4,0.257,746.3,01.17,0.508
2015-10-28 00:27:00,1831E-3,5C000400,-0724,0829,12177,027.3,045.4,0.257,746.4,01.17,0.508
2015-10-28 00:28:00,1915E-3,5C000400,-0724,0828,12263,027.4,045.4,0.257,746.3,01.17,0.508
2015-10-28 00:29:00,1877E-3,5C000400,-0724,0829,12139,027.4,045.4,0.257,746.3,01.17,0.508
2015-10-28 00:30:00,2060E-3,5C000400,-0724,0829,12114,027.3,045.4,0.257,746.5,01.17,0.508
2015-10-28 00:31:00,1791E-3,5C000400,-0724,0829,12176,027.3,045.4,0.257,746.5,01.17,0.508
2015-10-28 00:32:00,1850E-3,5C000400,-0724,0829,12184,027.4,045.4,0.257,746.2,01.17,0.508
2015-10-28 00:33:00,1929E-3,5C000400,-0724,0828,12125,027.3,045.4,0.257,746.3,01.17,0.508
2015-10-28 00:34:00,1896E-3,5C000400,-0724,0829,12134,027.4,045.4,0.257,746.3,01.17,0.508
2015-10-28 00:35:00,1909E-3,5C000400,-0724,0829,12195,027.4,045.4,0.257,746.2,01.17,0.508
2015-10-28 00:36:00,1887E-3,5C000400,-0724,0829,12096,027.3,045.4,0.257,746.5,01.17,0.508
2015-10-28 00:37:00,1925E-3,5C000400,-0724,0829,12136,027.3,045.4,0.257,746.3,01.17,0.508
2015-10-28 00:38:00,1893E-3,5C000400,-0724,0830,12190,027.3,045.4,0.258,746.0,01.17,0.508
2015-10-28 00:39:00,1886E-3,5C000400,-0724,0827,12325,027.3,045.4,0.257,746.1,01.17,0.508
2015-10-28 00:40:00,1879E-3,5C000400,-0724,0829,12186,027.3,045.4,0.257,746.5,01.17,0.508
2015-10-28 00:41:00,1942E-3,5C000400,-0724,0829,12295,027.3,045.4,0.257,746.6,01.17,0.508
2015-10-28 00:42:00,1824E-3,5C000400,-0724,0829,12274,027.3,045.4,0.257,746.3,01.17,0.508
2015-10-28 00:43:00,1854E-3,5C000400,-0724,0828,12105,027.3,045.4,0.257,745.7,01.17,0.508
2015-10-28 00:44:00,1868E-3,5C000400,-0724,0829,12154,027.3,045.4,0.257,745.8,01.17,0.508
2015-10-28 00:45:00,1843E-3,5C000400,-0724,0830,12166,027.4,045.4,0.257,746.0,01.17,0.508
2015-10-28 00:46:00,1823E-3,5C000400,-0724,0829,12179,027.3,045.4,0.257,745.6,01.17,0.508
2015-10-28 00:47:00,1892E-3,5C000400,-0724,0828,12151,027.3,045.4,0.258,746.2,01.17,0.508
2015-10-28 00:48:00,1788E-3,5C000400,-0724,0829,12147,027.3,045.4,0.257,746.2,01.17,0.508
2015-10-28 00:49:00,1894E-3,5C000400,-0724,0828,12055,027.3,045.4,0.257,746.1,01.17,0.508
2015-10-28 00:50:00,1931E-3,5C000400,-0724,0828,12228,027.3,045.4,0.257,745.6,01.17,0.508
2015-10-28 00:51:00,1917E-3,5C000400,-0724,0829,12175,027.3,045.4,0.257,745.9,01.17,0.508
2015-10-28 00:52:00,1868E-3,5C000400,-0724,0829,12184,027.3,045.4,0.257,746.2,01.17,0.508
2015-10-28 00:53:00,1883E-3,5C000400,-0724,0829,12227,027.3,045.4,0.257,745.9,01.17,0.508
2015-10-28 00:54:00,1906E-3,5C000400,-0724,0829,12300,027.3,045.4,0.257,746.3,01.17,0.508
2015-10-28 00:55:00,1781E-3,5C000400,-0724,0829,12194,027.3,045.4,0.257,746.5,01.17,0.508
2015-10-28 00:56:00,1850E-3,5C000400,-0724,0828,12053,027.3,045.4,0.258,746.6,01.17,0.508
2015-10-28 00:57:00,1844E-3,5C000400,-0724,0828,12188,027.3,045.4,0.257,746.5,01.17,0.508
2015-10-28 00:58:00,1925E-3,5C000400,-0724,0830,12293,027.3,045.4,0.258,746.2,01.17,0.508
2015-10-28 00:59:00,1946E-3,5C000400,-0724,0829,12343,027.3,045.4,0.257,746.2,01.17,0.508
2015-10-28 01:00:00,1955E-3,5C000400,-0724,0829,12268,027.3,045.4,0.257,746.5,01.17,0.508
2015-10-28 01:01:00,1857E-3,5C000400,-0724,0829,12289,027.3,045.4,0.257,746.7,01.17,0.508
2015-10-28 01:02:00,1820E-3,5C000400,-0724,0829,12198,027.3,045.4,0.257,746.6,01.17,0.508
2015-10-28 01:03:00,1815E-3,5C000400,-0724,0829,12212,027.3,045.4,0.257,747.0,01.17,0.508
2015-10-28 01:04:00,1765E-3,5C000400,-0724,0829,12333,027.3,045.4,0.257,747.1,01.17,0.508
2015-10-28 01:05:00,1735E-3,5C000400,-0724,0829,12287,027.2,045.4,0.257,747.4,01.17,0.508
2015-10-28 01:06:00,1984E-3,5C000400,-0724,0829,12209,027.3,045.4,0.257,747.4,01.17,0.508
2015-10-28 01:07:00,1860E-3,5C000400,-0724,0829,12210,027.3,045.4,0.257,747.1,01.17,0.508
2015-10-28 01:08:00,1862E-3,5C000400,-0724,0830,12312,027.2,045.4,0.257,747.6,01.17,0.508
2015-10-28 01:09:00,1848E-3,5C000400,-0724,0829,12150,027.3,045.4,0.258,747.8,01.17,0.508
2015-10-28 01:10:00,1720E-3,5C000400,-0724,0829,12253,027.2,045.4,0.257,747.8,01.17,0.508
2015-10-28 01:11:00,2041E-3,5C000400,-0724,0829,12125,027.2,045.4,0.257,747.8,01.17,0.508
2015-10-28 01:12:00,1811E-3,5C000400,-0724,0829,12242,027.3,045.4,0.257,748.0,01.17,0.508
2015-10-28 01:13:00,1956E-3,5C000400,-0724,0829,12305,027.2,045.4,0.258,748.1,01.17,0.508
2015-10-28 01:14:00,1781E-3,5C000400,-0724,0828,12203,027.2,045.4,0.257,748.1,01.17,0.508
2015-10-28 01:15:00,1909E-3,5C000400,-0724,0829,12232,027.3,045.4,0.257,747.8,01.17,0.508
2015-10-28 01:16:00,1853E-3,5C000400,-0724,0829,12258,027.2,045.4,0.257,748.1,01.17,0.508
2015-10-28 01:17:00,1762E-3,5C000400,-0724,0829,12148,027.2,045.4,0.257,748.2,01.17,0.508
2015-10-28 01:18:00,1857E-3,5C000400,-0724,0829,12343,027.2,045.4,0.257,748.1,01.17,0.508
2015-10-28 01:19:00,2017E-3,5C000400,-0724,0829,12228,027.2,045.4,0.258,748.4,01.17,0.508
2015-10-28 01:20:00,1908E-3,5C000400,-0724,0830,12220,027.3,045.4,0.257,748.4,01.17,0.508
2015-10-28 01:21:00,1727E-3,5C000400,-0724,0829,12243,027.2,045.4,0.257,748.1,01.17,0.508
2015-10-28 01:22:00,1842E-3,5C000400,-0724,0829,12225,027.2,045.4,0.258,748.0,01.17,0.508
2015-10-28 01:23:00,1897E-3,5C000400,-0724,0828,12157,027.2,045.4,0.257,747.8,01.17,0.508
2015-10-28 01:24:00,1747E-3,5C000400,-0724,0830,12066,027.2,045.4,0.257,748.0,01.17,0.508
2015-10-28 01:25:00,2173E-3,5C000400,-0724,0829,12281,027.3,045.4,0.257,748.1,01.17,0.508
2015-10-28 01:26:00,1895E-3,5C000400,-0724,0828,12317,027.2,045.4,0.257,748.1,01.17,0.508
2015-10-28 01:27:00,1854E-3,5C000400,-0724,0829,12139,027.3,045.4,0.257,748.1,01.17,0.508
2015-10-28 01:28:00,1881E-3,5C000400,-0724,0829,12131,027.3,045.4,0.257,747.3,01.17,0.508
2015-10-28 01:29:00,1792E-3,5C000400,-0724,0830,12376,027.2,045.4,0.257,747.9,01.17,0.508
2015-10-28 01:30:00,1835E-3,5C000400,-0724,0830,12071,027.2,045.4,0.258,747.8,01.17,0.508
2015-10-28 01:31:00,1936E-3,5C000400,-0724,0829,12208,027.2,045.4,0.257,747.8,01.17,0.508
2015-10-28 01:32:00,1864E-3,5C000400,-0724,0830,12073,027.3,045.4,0.258,747.8,01.17,0.508
2015-10-28 01:33:00,1853E-3,5C000400,-0724,0829,12237,027.3,045.4,0.257,747.8,01.17,0.508
2015-10-28 01:34:00,2048E-3,5C000400,-0724,0829,12253,027.3,045.4,0.257,747.1,01.17,0.508
2015-10-28 01:35:00,1834E-3,5C000400,-0724,0829,12181,027.3,045.4,0.257,747.9,01.17,0.508
2015-10-28 01:36:00,1792E-3,5C000400,-0724,0829,12292,027.3,045.4,0.257,748.1,01.17,0.508
2015-10-28 01:37:00,1892E-3,5C000400,-0724,0829,12372,027.3,045.4,0.257,747.9,01.17,0.508
2015-10-28 01:38:00,1826E-3,5C000400,-0724,0829,12058,027.3,045.4,0.257,746.9,01.17,0.508
2015-10-28 01:39:00,1890E-3,5C000400,-0724,0829,12240,027.3,045.4,0.257,747.8,01.17,0.508
2015-10-28 01:40:00,1858E-3,5C000400,-0724,0829,12230,027.3,045.4,0.257,747.8,01.17,0.508
2015-10-28 01:41:00,1894E-3,5C000400,-0724,0829,12251,027.3,045.4,0.258,747.5,01.17,0.508
2015-10-28 01:42:00,1957E-3,5C000400,-0724,0829,12112,027.3,045.4,0.257,747.9,01.17,0.508
2015-10-28 01:43:00,1823E-3,5C000400,-0724,0828,12221,027.3,045.4,0.258,747.7,01.17,0.508
2015-10-28 01:44:00,1851E-3,5C000400,-0724,0829,12281,027.3,045.4,0.257,747.2,01.17,0.508
2015-10-28 01:45:00,1875E-3,5C000400,-0724,0830,12267,027.3,045.4,0.257,747.7,01.17,0.508
2015-10-28 01:46:00,1821E-3,5C000400,-0724,0829,12217,027.3,045.4,0.257,747.7,01.17,0.508
2015-10-28 01:47:00,1873E-3,5C000400,-0724,0830,12179,027.3,045.4,0.257,747.6,01.17,0.508
2015-10-28 01:48:00,1903E-3,5C000400,-0724,0828,11999,027.3,045.4,0.257,747.8,01.17,0.508
2015-10-28 01:49:00,1821E-3,5C000400,-0724,0829,12339,027.3,045.4,0.257,747.8,01.17,0.508
2015-10-28 01:50:00,1945E-3,5C000400,-0724,0829,12255,027.3,045.4,0.257,747.7,01.17,0.508
2015-10-28 01:51:00,1937E-3,5C000400,-0724,0828,12158,027.3,045.4,0.257,747.8,01.17,0.508
2015-10-28 01:52:00,1935E-3,5C000400,-0724,0830,12276,027.3,045.4,0.257,747.5,01.17,0.508
2015-10-28 01:53:00,1894E-3,5C000400,-0724,0829,12246,027.3,045.4,0.257,747.6,01.17,0.508
2015-10-28 01:54:00,1966E-3,5C000400,-0724,0829,12132,027.3,045.4,0.257,747.9,01.17,0.508
2015-10-28 01:55:00,1901E-3,5C000400,-0724,0829,12139,027.3,045.4,0.257,747.7,01.17,0.508
2015-10-28 01:56:00,1914E-3,5C000400,-0724,0828,12223,027.3,045.4,0.257,747.8,01.17,0.508
2015-10-28 01:57:00,1916E-3,5C000400,-0724,0829,12273,027.3,045.4,0.258,747.8,01.17,0.508
2015-10-28 01:58:00,1718E-3,5C000400,-0724,0830,12318,027.3,045.4,0.258,748.0,01.17,0.508
2015-10-28 01:59:00,1926E-3,5C000400,-0724,0829,12230,027.3,045.4,0.257,747.9,01.17,0.508
2015-10-28 02:00:00,1966E-3,5C000400,-0724,0829,12281,027.3,045.4,0.257,748.1,01.17,0.508
2015-10-28 02:01:00,1870E-3,5C000400,-0724,0830,12230,027.3,045.4,0.257,748.2,01.17,0.508
2015-10-28 02:02:00,1838E-3,5C000400,-0724,0829,12187,027.3,045.4,0.257,747.8,01.17,0.508
2015-10-28 02:03:00,1969E-3,5C000400,-0724,0829,12205,027.3,045.4,0.257,747.8,01.17,0.508
2015-10-28 02:04:00,1859E-3,5C000400,-0724,0829,12340,027.3,045.4,0.257,747.7,01.17,0.508
2015-10-28 02:05:00,1903E-3,5C000400,-0724,0829,12266,027.3,045.4,0.257,747.8,01.17,0.508
2015-10-28 02:06:00,1904E-3,5C000400,-0724,0829,12228,027.3,045.4,0.257,747.9,01.17,0.508
2015-10-28 02:07:00,1818E-3,5C000400,-0724,0830,12189,027.3,045.4,0.257,747.8,01.17,0.508
2015-10-28 02:08:00,1937E-3,5C000400,-0724,0828,12142,027.3,045.4,0.257,748.0,01.17,0.508
2015-10-28 02:09:00,1860E-3,5C000400,-0724,0829,12201,027.3,045.4,0.257,747.6,01.17,0.508
2015-10-28 02:10:00,1859E-3,5C000400,-0724,0829,12360,027.3,045.4,0.257,747.7,01.17,0.508
2015-10-28 02:11:00,1682E-3,5C000400,-0724,0829,12153,027.3,045.4,0.257,747.9,01.17,0.508
2015-10-28 02:12:00,1931E-3,5C000400,-0724,0829,12162,027.3,045.4,0.257,748.0,01.17,0.508
2015-10-28 02:13:00,2026E-3,5C000400,-0724,0828,12194,027.3,045.4,0.257,747.8,01.17,0.508
2015-10-28 02:14:00,1955E-3,5C000400,-0724,0829,12188,027.4,045.4,0.257,747.8,01.17,0.508
2015-10-28 02:15:00,1963E-3,5C000400,-0724,0829,12392,027.3,045.4,0.257,747.7,01.17,0.508
2015-10-28 02:16:00,1790E-3,5C000400,-0724,0829,12130,027.3,045.4,0.257,747.9,01.17,0.508
2015-10-28 02:17:00,1823E-3,5C000400,-0724,0829,12190,027.3,045.4,0.257,748.1,01.17,0.508
2015-10-28 02:18:00,1877E-3,5C000400,-0724,0829,12210,027.3,045.4,0.257,747.8,01.17,0.508
2015-10-28 02:19:00,1953E-3,5C000400,-0724,0829,12280,027.3,045.4,0.257,748.0,01.17,0.508
2015-10-28 02:20:00,1626E-3,5C000400,-0724,0829,12213,027.3,045.4,0.257,748.1,01.17,0.508
2015-10-28 02:21:00,1671E-3,5C000400,-0724,0829,12068,027.3,045.4,0.257,748.1,01.17,0.508
2015-10-28 02:22:00,1793E-3,5C000400,-0724,0830,12276,027.3,045.4,0.257,747.9,01.17,0.508
2015-10-28 02:23:00,1907E-3,5C000400,-0724,0830,12134,027.3,045.4,0.257,748.3,01.17,0.508
2015-10-28 02:24:00,1988E-3,5C000400,-0724,0830,12251,027.3,045.4,0.258,748.3,01.17,0.508
2015-10-28 02:25:00,1932E-3,5C000400,-0724,0829,12211,027.3,045.4,0.257,748.3,01.17,0.508
2015-10-28 02:26:00,1936E-3,5C000400,-0724,0828,12180,027.3,045.4,0.257,748.2,01.17,0.508
2015-10-28 02:27:00,1943E-3,5C000400,-0724,0829,12355,027.3,045.4,0.257,748.0,01.17,0.508
2015-10-28 02:28:00,1926E-3,5C000400,-0724,0829,12100,027.3,045.4,0.257,748.2,01.17,0.508
2015-10-28 02:29:00,1929E-3,5C000400,-0724,0828,12223,027.3,045.4,0.257,748.3,01.17,0.508
2015-10-28 02:30:00,1935E-3,5C000400,-0724,0829,12249,027.4,045.4,0.258,748.1,01.17,0.508
2015-10-28 02:31:00,1902E-3,5C000400,-0724,0829,12115,027.3,045.4,0.257,748.3,01.17,0.508
2015-10-28 02:32:00,1793E-3,5C000400,-0724,0828,12200,027.4,045.4,0.257,748.4,01.17,0.508
2015-10-28 02:33:00,1866E-3,5C000400,-0724,0829,12292,027.4,045.4,0.257,748.5,01.17,0.508
2015-10-28 02:34:00,1798E-3,5C000400,-0724,0829,12173,027.3,045.4,0.257,748.3,01.17,0.508
2015-10-28 02:35:00,1933E-3,5C000400,-0724,0830,12181,027.4,045.4,0.257,748.4,01.17,0.508
2015-10-28 02:36:00,1833E-3,5C000400,-0724,0830,12030,027.3,045.4,0.257,748.2,01.17,0.508
2015-10-28 02:37:00,1896E-3,5C000400,-0724,0829,12236,027.3,045.4,0.257,748.1,01.17,0.508
2015-10-28 02:38:00,2093E-3,5C000400,-0724,0830,12130,027.4,045.4,0.257,748.4,01.17,0.508
2015-10-28 02:39:00,1852E-3,5C000400,-0724,0829,12393,027.4,045.4,0.257,748.3,01.17,0.508
2015-10-28 02:40:00,1790E-3,5C000400,-0724,0830,12044,027.3,045.4,0.257,748.3,01.17,0.508
2015-10-28 02:41:00,1907E-3,5C000400,-0724,0829,12136,027.4,045.4,0.257,748.5,01.17,0.508
2015-10-28 02:42:00,1792E-3,5C000400,-0724,0830,12267,027.4,045.4,0.257,748.3,01.17,0.508
2015-10-28 02:43:00,1770E-3,5C000400,-0724,0829,12178,027.4,045.4,0.257,748.4,01.17,0.508
2015-10-28 02:44:00,1799E-3,5C000400,-0724,0829,12259,027.4,045.4,0.257,748.3,01.17,0.508
2015-10-28 02:45:00,1794E-3,5C000400,-0724,0829,12120,027.4,045.4,0.257,748.3,01.17,0.508
2015-10-28 02:46:00,1815E-3,5C000400,-0724,0829,12177,027.4,045.4,0.257,748.5,01.17,0.508
2015-10-28 02:47:00,1872E-3,5C000400,-0724,0831,12167,027.4,045.4,0.257,748.2,01.17,0.508
2015-10-28 02:48:00,1801E-3,5C000400,-0724,0829,12219,027.4,045.4,0.257,748.9,01.17,0.508
2015-10-28 02:49:00,1963E-3,5C000400,-0724,0829,12076,027.4,045.4,0.257,748.7,01.17,0.508
2015-10-28 02:50:00,1893E-3,5C000400,-0724,0829,12214,027.4,045.4,0.257,748.3,01.17,0.508
2015-10-28 02:51:00,1973E-3,5C000400,-0724,0829,12094,027.4,045.4,0.257,748.5,01.17,0.508
2015-10-28 02:52:00,1903E-3,5C000400,-0724,0830,12242,027.4,045.4,0.257,748.8,01.17,0.508
2015-10-28 02:53:00,1785E-3,5C000400,-0724,0829,12254,027.4,045.4,0.257,748.7,01.17,0.508
2015-10-28 02:54:00,1911E-3,5C000400,-0724,0829,12175,027.4,045.4,0.257,748.3,01.17,0.508
2015-10-28 02:55:00,1791E-3,5C000400,-0724,0829,12304,027.4,045.4,0.257,748.5,01.17,0.508
2015-10-28 02:56:00,1783E-3,5C000400,-0724,0829,12280,027.4,045.4,0.257,748.6,01.17,0.508
2015-10-28 02:57:00,1901E-3,5C000400,-0724,0829,12205,027.4,045.4,0.257,748.7,01.17,0.508
2015-10-28 02:58:00,1975E-3,5C000400,-0724,0828,12203,027.4,045.4,0.257,748.5,01.17,0.508
2015-10-28 02:59:00,1899E-3,5C000400,-0724,0829,12299,027.4,045.4,0.257,748.7,01.17,0.508
2015-10-28 03:00:00,1899E-3,5C000400,-0724,0828,12191,027.4,045.4,0.257,748.7,01.17,0.508
2015-10-28 03:01:00,1806E-3,5C000400,-0724,0829,12155,027.4,045.4,0.257,748.4,01.17,0.508
2015-10-28 03:02:00,1954E-3,5C000400,-0724,0829,12144,027.4,045.4,0.257,748.2,01.17,0.508
2015-10-28 03:03:00,2014E-3,5C000400,-0724,0829,12118,027.4,045.4,0.257,748.3,01.17,0.508
2015-10-28 03:04:00,1857E-3,5C000400,-0724,0829,12206,027.4,045.4,0.257,748.5,01.17,0.508
2015-10-28 03:05:00,1847E-3,5C000400,-0724,0830,12181,027.4,045.4,0.257,748.6,01.17,0.508
2015-10-28 03:06:00,1834E-3,5C000400,-0724,0830,12210,027.4,045.4,0.257,748.7,01.17,0.508
2015-10-28 03:07:00,1800E-3,5C000400,-0724,0830,12193,027.4,045.4,0.257,748.6,01.17,0.508
2015-10-28 03:08:00,1931E-3,5C000400,-0724,0828,12138,027.4,045.4,0.257,748.5,01.17,0.508
2015-10-28 03:09:00,1908E-3,5C000400,-0724,0830,12067,027.4,045.4,0.257,748.4,01.17,0.508
2015-10-28 03:10:00,1855E-3,5C000400,-0724,0829,12315,027.4,045.4,0.257,747.9,01.17,0.508
2015-10-28 03:11:00,1813E-3,5C000400,-0724,0829,12155,027.4,045.4,0.257,748.5,01.17,0.508
2015-10-28 03:12:00,1943E-3,5C000400,-0724,0831,12251,027.4,045.4,0.257,748.3,01.17,0.508
2015-10-28 03:13:00,1854E-3,5C000400,-0724,0829,12169,027.5,045.4,0.257,748.2,01.17,0.508
2015-10-28 03:14:00,1849E-3,5C000400,-0724,0829,12294,027.4,045.4,0.257,748.5,01.17,0.508
2015-10-28 03:15:00,1884E-3,5C000400,-0724,0829,12256,027.4,045.4,0.257,748.4,01.17,0.508
2015-10-28 03:16:00,1840E-3,5C000400,-0724,0829,12138,027.4,045.4,0.257,748.4,01.17,0.508
2015-10-28 03:17:00,1813E-3,5C000400,-0724,0829,12129,027.4,045.4,0.257,748.3,01.17,0.508
2015-10-28 03:18:00,1860E-3,5C000400,-0724,0829,12234,027.4,045.4,0.257,748.3,01.17,0.508
2015-10-28 03:19:00,1810E-3,5C000400,-0724,0829,12193,027.4,045.4,0.257,748.4,01.17,0.508
2015-10-28 03:20:00,1978E-3,5C000400,-0724,0829,12072,027.4,045.4,0.257,748.6,01.17,0.508
2015-10-28 03:21:00,1970E-3,5C000400,-0724,0828,12174,027.4,045.4,0.257,748.7,01.17,0.508
2015-10-28 03:22:00,1829E-3,5C000400,-0724,0830,12379,027.4,045.4,0.257,748.5,01.17,0.508
2015-10-28 03:23:00,1908E-3,5C000400,-0724,0829,12205,027.4,045.4,0.257,748.7,01.17,0.508
2015-10-28 03:24:00,1822E-3,5C000400,-0724,0829,12203,027.3,045.4,0.257,748.9,01.17,0.508
2015-10-28 03:25:00,1767E-3,5C000400,-0724,0828,12233,027.3,045.4,0.257,748.8,01.17,0.508
2015-10-28 03:26:00,1990E-3,5C000400,-0724,0830,12240,027.3,045.4,0.257,748.6,01.17,0.508
2015-10-28 03:27:00,1962E-3,5C000400,-0724,0829,12222,027.3,045.4,0.257,748.6,01.17,0.508
2015-10-28 03:28:00,1965E-3,5C000400,-0724,0829,12381,027.3,045.4,0.257,748.9,01.17,0.508
2015-10-28 03:29:00,1786E-3,5C000400,-0724,0829,12135,027.3,045.4,0.257,748.6,01.17,0.508
2015-10-28 03:30:00,1946E-3,5C000400,-0724,0829,12238,027.3,045.4,0.257,748.9,01.17,0.508
2015-10-28 03:31:00,1787E-3,5C000400,-0724,0829,12306,027.2,045.4,0.257,748.9,01.17,0.508
2015-10-28 03:32:00,1830E-3,5C000400,-0724,0830,12267,027.2,045.4,0.257,748.9,01.17,0.508
2015-10-28 03:33:00,1819E-3,5C000400,-0724,0829,12157,027.2,045.4,0.257,748.9,01.17,0.508
2015-10-28 03:34:00,1888E-3,5C000400,-0724,0829,12167,027.2,045.4,0.257,749.0,01.17,0.508
2015-10-28 03:35:00,1884E-3,5C000400,-0724,0830,12167,027.2,045.4,0.258,749.0,01.17,0.508
2015-10-28 03:36:00,1853E-3,5C000400,-0724,0829,12052,027.2,045.4,0.257,748.9,01.17,0.508
2015-10-28 03:37:00,1905E-3,5C000400,-0724,0828,12172,027.1,045.4,0.257,749.0,01.17,0.508
2015-10-28 03:38:00,1824E-3,5C000400,-0724,0829,12149,027.1,045.4,0.257,749.1,01.17,0.508
2015-10-28 03:39:00,1881E-3,5C000400,-0724,0829,12191,027.1,045.4,0.257,749.1,01.17,0.508
2015-10-28 03:40:00,1898E-3,5C000400,-0724,0829,12222,027.1,045.4,0.258,749.2,01.17,0.508
2015-10-28 03:41:00,1871E-3,5C000400,-0724,0829,12246,027.1,045.4,0.257,749.3,01.17,0.508
2015-10-28 03:42:00,1898E-3,5C000400,-0724,0829,12175,027.0,045.4,0.258,749.2,01.17,0.508
2015-10-28 03:43:00,1795E-3,5C000400,-0724,0829,12182,027.0,045.4,0.257,749.3,01.17,0.508
2015-10-28 03:44:00,1798E-3,5C000400,-0724,0829,12228,027.0,045.4,0.258,749.2,01.17,0.508
2015-10-28 03:45:00,1857E-3,5C000400,-0724,0829,12264,027.0,045.4,0.258,749.2,01.17,0.508
2015-10-28 03:46:00,1949E-3,5C000400,-0724,0829,12246,027.0,045.4,0.258,749.3,01.17,0.508
2015-10-28 03:47:00,1884E-3,5C000400,-0724,0829,12258,027.0,045.4,0.258,749.2,01.17,0.508
2015-10-28 03:48:00,1921E-3,5C000400,-0724,0829,12189,027.0,045.4,0.257,749.1,01.17,0.508
2015-10-28 03:49:00,1808E-3,5C000400,-0724,0829,12215,027.0,045.4,0.258,749.3,01.17,0.508
2015-10-28 03:50:00,1790E-3,5C000400,-0724,0829,12255,026.9,045.4,0.258,749.0,01.17,0.508
2015-10-28 03:51:00,1876E-3,5C000400,-0724,0830,12112,026.9,045.4,0.258,749.2,01.17,0.508
2015-10-28 03:52:00,1838E-3,5C000400,-0724,0829,12172,026.9,045.4,0.258,749.3,01.17,0.508
2015-10-28 03:53:00,1853E-3,5C000400,-0724,0829,12238,026.9,045.4,0.258,749.3,01.17,0.508
2015-10-28 03:54:00,1856E-3,5C000400,-0724,0829,12309,026.8,045.4,0.258,749.3,01.17,0.508
2015-10-28 03:55:00,1943E-3,5C000400,-0724,0830,12157,026.8,045.4,0.258,749.3,01.17,0.508
2015-10-28 03:56:00,1849E-3,5C000400,-0724,0829,12187,026.8,045.4,0.258,749.3,01.17,0.508
2015-10-28 03:57:00,1810E-3,5C000400,-0724,0829,12175,026.8,045.4,0.258,749.3,01.17,0.508
2015-10-28 03:58:00,2048E-3,5C000400,-0724,0829,12130,026.8,045.4,0.258,749.4,01.17,0.508
2015-10-28 03:59:00,1981E-3,5C000400,-0724,0829,12208,026.7,045.4,0.258,749.2,01.17,0.508
2015-10-28 04:00:00,1873E-3,5C000400,-0724,0829,12192,026.7,045.4,0.258,749.4,01.17,0.508
2015-10-28 04:01:00,1733E-3,5C000400,-0724,0830,12005,026.7,045.4,0.258,749.3,01.17,0.508
2015-10-28 04:02:00,1705E-3,5C000400,-0724,0829,12229,026.7,045.4,0.258,749.4,01.17,0.508
2015-10-28 04:03:00,1762E-3,5C000400,-0724,0829,12276,026.7,045.4,0.258,749.3,01.17,0.508
2015-10-28 04:04:00,1809E-3,5C000400,-0724,0829,12275,026.7,045.4,0.258,749.3,01.17,0.508
2015-10-28 04:05:00,1878E-3,5C000400,-0724,0828,12285,026.6,045.4,0.258,749.4,01.17,0.508
2015-10-28 04:06:00,1843E-3,5C000400,-0724,0830,12305,026.7,045.4,0.258,749.2,01.17,0.508
2015-10-28 04:07:00,1945E-3,5C000400,-0724,0829,12320,026.6,045.4,0.258,749.2,01.17,0.508
2015-10-28 04:08:00,1763E-3,5C000400,-0724,0828,12182,026.6,045.4,0.258,749.1,01.17,0.508
2015-10-28 04:09:00,1862E-3,5C000400,-0724,0829,12254,026.6,045.4,0.258,749.3,01.17,0.508
2015-10-28 04:10:00,1890E-3,5C000400,-0724,0829,12275,026.6,045.4,0.259,749.1,01.17,0.508
2015-10-28 04:11:00,1833E-3,5C000400,-0724,0829,12349,026.5,045.4,0.258,749.2,01.17,0.508
2015-10-28 04:12:00,1948E-3,5C000400,-0724,0829,12178,026.5,045.4,0.258,749.3,01.17,0.508
2015-10-28 04:13:00,1859E-3,5C000400,-0724,0829,12180,026.5,045.4,0.258,748.9,01.17,0.508
2015-10-28 04:14:00,1686E-3,5C000400,-0724,0829,12294,026.5,045.4,0.258,749.1,01.17,0.508
2015-10-28 04:15:00,1797E-3,5C000400,-0724,0829,12112,026.5,045.4,0.259,749.2,01.17,0.508
2015-10-28 04:16:00,1811E-3,5C000400,-0724,0829,12274,026.5,045.4,0.258,749.1,01.17,0.508
2015-10-28 04:17:00,1899E-3,5C000400,-0724,0829,12074,026.5,045.4,0.259,748.9,01.17,0.508
2015-10-28 04:18:00,1827E-3,5C000400,-0724,0829,12275,026.4,045.4,0.258,749.0,01.17,0.508
2015-10-28 04:19:00,1973E-3,5C000400,-0724,0829,12255,026.4,045.4,0.259,748.6,01.17,0.508
2015-10-28 04:20:00,1870E-3,5C000400,-0724,0829,12276,026.4,045.4,0.258,748.5,01.17,0.508